| time (UTC) | temp C | wind direction | speed KPH | gust KPH | rain 1hr cm | rain 24hr cm | rain mn cm | humidity % | barometer mb |
| 20260505030943 | 26 | 0.0 | 0.0 | 0.00 | 0.00 | 0.00 | 82 | 967.4 | |
| 20260505024943 | 26 | 0.0 | 0.0 | 0.00 | 0.00 | 0.00 | 82 | 967.5 | |
| 20260505022943 | 26 | 0.0 | 0.0 | 0.00 | 0.00 | 0.00 | 81 | 967.4 | |
| 20260505020943 | 26 | 0.0 | 0.0 | 0.00 | 0.00 | 0.00 | 80 | 967.4 | |
| 20260505014943 | 26 | 0.0 | 0.0 | 0.00 | 0.00 | 0.00 | 80 | 967.4 | |
| 20260505012943 | 26 | 0.0 | 0.0 | 0.00 | 0.00 | 0.00 | 80 | 967.5 | |
| 20260505010943 | 26 | 0.0 | 0.0 | 0.00 | 0.00 | 0.00 | 79 | 967.5 | |
| 20260505004943 | 26 | 0.0 | 0.0 | 0.00 | 0.00 | 0.00 | 79 | 967.4 | |
| 20260505002942 | 26 | 0.0 | 0.0 | 0.00 | 0.00 | 0.00 | 78 | 967.3 | |
| 20260505000943 | 26 | 0.0 | 0.0 | 0.00 | 0.00 | 0.00 | 78 | 967.1 | |
| 20260504234942 | 26 | 0.0 | 0.0 | 0.00 | 0.00 | 0.00 | 78 | 967.0 | |
| 20260504232943 | 26 | 0.0 | 0.0 | 0.00 | 0.00 | 0.00 | 77 | 967.0 | |
| 20260504230942 | 26 | 0.0 | 0.0 | 0.00 | 0.00 | 0.00 | 78 | 966.7 | |
| 20260504224943 | 26 | 0.0 | 0.0 | 0.00 | 0.00 | 0.00 | 77 | 966.7 | |
| 20260504222943 | 26 | 0.0 | 0.0 | 0.00 | 0.00 | 0.00 | 77 | 966.6 | |
| 20260504220943 | 26 | 0.0 | 0.0 | 0.00 | 0.00 | 0.00 | 78 | 966.5 | |
| 20260504214943 | 26 | 0.0 | 0.0 | 0.00 | 0.00 | 0.00 | 78 | 966.4 | |
| 20260504212943 | 26 | 0.0 | 0.0 | 0.00 | 0.00 | 0.00 | 78 | 966.4 | |
| 20260504210943 | 26 | 0.0 | 0.0 | 0.00 | 0.00 | 0.00 | 78 | 966.2 | |
| 20260504204942 | 26 | 0.0 | 0.0 | 0.00 | 0.00 | 0.00 | 77 | 966.2 | |
| 20260504202943 | 26 | 0.0 | 0.0 | 0.00 | 0.00 | 0.00 | 77 | 966.0 | |
| 20260504200943 | 26 | 0.0 | 0.0 | 0.00 | 0.00 | 0.00 | 76 | 965.9 | |
| 20260504194943 | 26 | 0.0 | 0.0 | 0.00 | 0.00 | 0.00 | 76 | 965.9 | |
| 20260504192943 | 26 | 0.0 | 0.0 | 0.00 | 0.00 | 0.00 | 76 | 965.8 | |
| 20260504190943 | 26 | 0.0 | 0.0 | 0.00 | 0.00 | 0.00 | 77 | 965.8 | |
| 20260504184943 | 26 | 0.0 | 0.0 | 0.00 | 0.00 | 0.00 | 77 | 965.9 | |
| 20260504182943 | 26 | 0.0 | 0.0 | 0.00 | 0.00 | 0.00 | 77 | 966.0 | |
| 20260504180943 | 26 | 0.0 | 0.0 | 0.00 | 0.00 | 0.00 | 76 | 966.3 | |
| 20260504174943 | 26 | 0.0 | 0.0 | 0.00 | 0.00 | 0.00 | 76 | 966.3 | |
| 20260504172943 | 26 | 0.0 | 0.0 | 0.00 | 0.00 | 0.00 | 75 | 966.4 | |
| 20260504170943 | 26 | 0.0 | 0.0 | 0.00 | 0.00 | 0.00 | 75 | 966.5 | |
| 20260504150943 | 26 | 0.0 | 0.0 | 0.00 | 0.00 | 0.00 | 72 | 967.4 | |
| 20260504140943 | 27 | 0.0 | 0.0 | 0.00 | 0.00 | 0.00 | 72 | 967.4 | |
| 20260504080942 | 28 | 0.0 | 0.0 | 0.00 | 0.00 | 0.00 | 67 | 965.0 | |
| 20260504044943 | 29 | 0.0 | 0.0 | 0.00 | 0.00 | 0.00 | 66 | 965.3 | |
| 20260504042943 | 30 | 0.0 | 0.0 | 0.00 | 0.00 | 0.00 | 67 | 965.3 | |
| 20260504040943 | 29 | 0.0 | 0.0 | 0.00 | 0.00 | 0.00 | 69 | 965.2 | |
| 20260504034943 | 29 | 0.0 | 0.0 | 0.00 | 0.00 | 0.00 | 70 | 965.5 | |
| 20260504032942 | 28 | 0.0 | 0.0 | 0.00 | 0.00 | 0.00 | 71 | 965.6 |